Flag for India Weather past 2 weeks in Kãnpur, Uttar Pradesh, India

Now
48 °F

Fog.


Feels Like: 48 °F
Forecast: 41 / 64 °F
Wind: No wind

Location: Lucknow / Amausi

Current Time: Dec 29, 2014 at 3:50:39 AM

Latest Report: Dec 29, 2014 at 3:00 AM


Visibility: 0 mi

Pressure: 30.04 "Hg

Humidity: 100%

Dew point: 48 °F

Location of KãnpurLocation

Historic Weather in Kãnpur — Graph

°F

Kãnpur temperature yesterday

Maximum temperature yesterday: 50 °F (at 1:00 PM)
Minimum temperature yesterday: 45 °F (at 5:30 AM)
Average temperature yesterday: 48 °F

Past Weeks' High & Low Weather Summary

 TemperatureHumidityPressure
High70 °F (Dec 15, 2:30 PM)100% (Dec 14, 2:00 AM)30.24 "Hg (Dec 14, 2:00 AM)
Low36 °F (Dec 24, 7:00 AM)35% (Dec 24, 1:30 PM)29.95 "Hg (Dec 26, 4:30 PM)
Average55 °F82%30.06 "Hg
* Reported Dec 14 2:00 AM — Dec 29 2:00 AM, Kãnpur, Weather by CustomWeather, © 2014

Note: Actual official high and low records may vary slightly from our data, if they occured in-between our weather recording intervals... More about our weather records

Advertising

Kãnpur weather history for previous 24 hours

 ConditionsComfort  
Time TempWeatherWind HumidityBarometerVisibility
2:00 AM
Dec 29
48 °FFog.No wind100%30.07 "Hg0 mi
1:00 AM48 °FFog.No wind100%30.07 "Hg0 mi
12:00 AM48 °FFog.No wind100%30.07 "Hg0 mi
11:00 PM
Dec 28
48 °FFog.No wind100%30.07 "Hg0 mi
10:00 PM48 °FFog.No wind100%30.09 "Hg0 mi
9:00 PM48 °FFog.No wind100%30.07 "Hg0 mi
8:30 PM48 °FFog.No wind100%30.09 "Hg0 mi
8:00 PM48 °FFog.No wind94%30.07 "Hg0 mi
6:30 PM50 °FFog.2 mph94%30.07 "Hg1 mi
6:00 PM50 °FFog.2 mph94%30.07 "Hg1 mi
5:30 PM50 °FFog.2 mph94%30.07 "Hg1 mi
5:00 PM48 °FFog.2 mph94%30.07 "Hg1 mi
4:30 PM50 °FFog.2 mph94%30.07 "Hg1 mi
3:30 PM50 °FFog.2 mph94%30.07 "Hg1 mi
3:00 PM50 °FDense fog.2 mph94%30.07 "Hg1 mi
2:30 PM50 °FDense fog.2 mph94%30.07 "Hg1 mi
2:00 PM48 °FFog.2 mph94%30.07 "Hg1 mi
1:30 PM48 °FCool.2 mph94%30.09 "Hg1 mi
1:00 PM50 °FFog.2 mph82%30.09 "Hg1 mi
12:00 PM48 °FFog.2 mph87%30.12 "Hg0 mi
11:30 AM48 °FFog.2 mph87%30.12 "Hg0 mi
11:00 AM46 °FFog.2 mph100%30.12 "Hg0 mi
10:30 AM46 °FFog.3 mph100%30.15 "Hg0 mi
8:00 AM45 °FFog.No wind100%30.09 "Hg0 mi
7:30 AM45 °FFog.No wind100%30.09 "Hg0 mi
7:00 AM45 °FFog.No wind100%30.09 "Hg0 mi
6:30 AM45 °FFog.No wind100%30.09 "Hg0 mi
6:00 AM45 °FFog.No wind100%30.07 "Hg0 mi
5:30 AM45 °FFog.No wind100%30.07 "Hg0 mi
3:00 AM46 °FFog.No wind100%30.07 "Hg0 mi
Weather by CustomWeather, © 2014

See weather overviewHow to use our weather pages